Probability
0 0 0 0 0 0 0 0 0 0 0 0 0 0 0 1 2 3 2 1 1 0 0 0 0 1 1 1 0 0 0 0 0 0 0 0 0 0 0 0 0 0 0
0 0 0 0 0 0 0 0 0 0 0 0 0 0 0 1 2 3 3 2 2 1 1 1 1 1 1 0 0 0 0 0 0 0 0 0 0 0 0 0 0 0 0
0 0 0 0 0 0 0 0 0 0 0 0 0 0 0 0 1 2 3 3 3 3 2 2 2 1 0 0 0 0 0 0 0 0 0 0 0 0 0 0 0 0 0
0 0 0 0 0 0 0 0 0 0 0 0 0 0 0 0 0 1 2 3 3 3 3 3 3 1 0 0 0 0 0 0 0 0 0 0 0 0 0 0 0 0 0
0 0 0 0 0 0 0 0 0 0 0 0 0 1 1 1 1 1 2 3 3 3 2 3 2 1 0 0 0 0 0 0 0 0 0 0 0 0 0 0 0 0 0
0 0 0 0 0 0 0 0 0 0 0 0 0 1 2 1 1 0 1 2 2 1 1 1 1 1 0 0 0 0 0 0 0 0 0 0 0 0 0 0 0 0 0
0 0 0 0 0 0 0 0 0 0 0 0 0 1 1 1 0 0 0 1 1 1 1 1 0 0 0 0 0 0 0 0 0 0 1 0 0 0 0 0 0 0 0
0 0 0 0 0 0 0 0 0 0 0 0 0 0 0 0 0 0 0 0 0 0 0 0 0 0 0 0 0 0 0 0 0 0 0 0 0 0 0 0 0 0 0
0 0 0 0 0 0 0 0 0 0 0 0 0 0 0 0 0 0 0 0 0 0 0 0 0 0 0 0 0 0 0 0 0 0 0 0 0 0 0 0 0 0 0
0 0 0 0 0 0 0 0 0 0 0 0 0 0 0 0 0 0 0 0 0 0 0 0 0 0 0 0 0 0 0 0 0 0 0 0 0 0 0 0 0 0 0
0 0 0 0 0 0 0 0 0 0 0 0 0 0 0 0 0 0 0 0 0 0 0 0 0 0 0 0 0 0 0 0 0 0 0 0 0 0 0 0 0 0 0
0 0 0 0 0 0 0 0 0 0 0 0 0 0 0 0 0 0 0 0 0 0 0 0 0 0 0 0 0 0 0 0 0 0 0 0 0 0 0 0 0 0 0
0 0 0 0 0 0 0 0 0 0 0 0 0 0 0 0 0 0 0 0 0 0 0 0 0 0 0 0 0 0 0 0 0 0 0 0 0 0 0 0 0 0 0
0 0 0 0 0 0 0 0 0 0 0 0 0 0 0 0 0 0 0 0 0 0 0 0 0 0 0 0 0 0 0 0 0 0 0 0 0 0 0 0 0 0 0
0 0 0 0 0 0 0 0 0 0 0 0 0 0 0 0 0 0 0 0 0 0 0 0 0 0 0 0 0 0 0 0 0 0 0 0 0 0 0 0 0 0 0
0 0 0 0 0 0 0 0 0 0 0 0 0 0 0 0 0 0 0 0 0 0 0 0 0 0 0 0 0 0 0 0 0 0 0 0 0 0 0 0 0 0 0
0 0 0 0 0 0 0 0 0 0 0 0 0 0 0 0 0 0 0 0 0 0 0 0 0 0 0 0 0 0 0 0 0 0 0 0 0 0 0 0 0 0 0
0 0 0 0 0 0 0 0 0 0 0 0 0 0 0 0 0 0 0 0 0 0 0 0 0 0 0 0 0 0 0 0 0 0 0 0 0 0 0 0 0 0 0
0 0 0 0 0 0 0 0 0 0 0 0 0 0 0 0 0 0 0 0 0 0 0 0 0 0 0 0 0 0 0 0 0 0 0 0 0 0 0 0 0 0 0
0 0 0 0 0 0 0 0 0 0 0 0 0 0 0 0 0 0 0 0 0 0 0 0 0 0 0 0 0 0 0 0 0 0 0 0 0 0 0 0 0 0 0
0 0 0 0 0 0 0 0 0 0 0 0 0 0 0 0 0 0 0 0 0 0 0 0 0 0 0 0 0 0 0 0 0 0 0 0 0 0 0 0 0 0 0
0 0 0 0 0 0 0 0 0 0 0 0 0 0 0 0 0 0 0 0 0 0 0 0 0 0 0 0 0 0 0 0 0 0 0 0 0 0 0 0 0 0 0
0 0 0 0 0 0 0 0 0 0 0 0 0 0 0 0 0 0 0 0 0 0 0 0 0 0 0 0 0 0 0 0 0 0 0 0 0 0 0 0 0 0 0
0 0 0 0 0 0 0 0 0 0 0 0 0 0 0 0 0 0 0 0 0 0 0 0 0 0 0 0 0 0 0 0 0 0 0 0 0 0 0 0 0 0 0
0 0 0 0 0 0 0 0 0 0 0 0 0 0 0 0 0 0 0 0 0 0 0 0 0 0 0 0 0 0 0 0 0 0 0 0 0 0 0 0 0 0 0
0 0 0 0 0 0 0 0 0 0 0 0 0 0 0 0 0 0 0 0 0 0 0 0 0 0 0 0 0 0 0 0 0 0 0 0 0 0 0 0 0 0 0
Wind_Speed
6 6 6 6 6 6 5 6 5 5 5 6 6 6 6 6 6 6 6 7 8 8 8 8 9 9 8 7 7 8 8 9 13 12 9 9 10 10 9 9 10 10 10
5 5 5 5 5 5 5 5 5 5 4 4 5 5 5 5 5 6 6 6 7 8 8 8 9 7 9 8 7 9 9 9 11 14 12 9 11 11 10 10 9 8 10
4 4 4 4 4 5 4 4 4 4 4 3 4 4 4 4 4 5 5 6 6 7 7 8 9 8 9 8 9 9 8 8 9 11 12 9 8 8 9 9 10 9 9
4 4 4 4 4 3 3 3 3 3 3 3 3 3 3 3 3 3 4 5 5 6 7 7 8 8 9 9 8 9 8 9 9 10 11 10 9 7 6 8 8 7 8
4 4 4 3 3 3 3 3 2 2 2 2 2 2 1 2 2 2 3 4 5 5 6 6 7 7 8 8 7 8 8 8 8 8 10 10 9 6 6 6 9 9 9
5 5 4 3 3 3 3 3 2 2 2 2 2 2 2 1 2 2 3 4 4 5 5 6 6 5 6 8 9 10 10 10 10 10 9 11 11 10 8 7 8 8 9
5 4 4 4 3 3 3 3 3 2 2 2 1 2 2 2 2 3 3 4 4 4 5 5 5 5 6 8 8 10 10 12 14 13 14 14 13 10 9 10 9 10 12
4 4 3 4 3 3 3 3 2 2 2 2 1 1 1 2 2 3 3 3 4 4 5 5 6 7 6 8 9 9 10 10 10 11 12 14 13 12 11 11 12 11 10
4 4 4 4 4 4 3 3 2 2 2 1 1 1 1 2 2 3 4 3 3 5 5 6 6 7 8 9 9 10 11 10 10 12 15 16 18 17 14 9 8 8 10
5 4 3 3 4 4 3 2 1 1 1 1 1 1 1 2 3 4 4 2 3 4 5 5 6 7 11 11 9 10 12 11 10 10 11 13 13 13 13 11 9 9 9
3 3 2 3 3 3 2 2 1 1 1 1 1 1 1 2 3 4 5 3 3 4 5 5 5 9 12 13 12 10 13 13 11 11 10 10 9 7 7 7 8 8 9
3 3 3 2 2 2 2 2 2 2 1 1 0 1 1 2 3 5 6 6 6 5 5 5 7 12 14 15 12 12 15 12 8 8 8 8 8 7 7 8 8 9 9
4 3 3 2 2 2 3 3 2 2 2 1 1 1 2 2 3 5 6 7 8 6 6 9 12 14 14 11 11 13 10 7 7 7 8 8 8 8 8 7 7 7 9
4 4 3 3 2 2 1 2 2 2 2 2 2 2 2 2 3 3 4 5 6 6 6 7 10 11 10 9 8 7 6 6 7 7 8 8 8 7 7 7 7 7 8
3 3 3 2 2 2 1 1 2 2 2 2 2 2 2 3 4 7 6 5 5 6 7 5 5 5 5 5 6 6 6 6 6 6 7 8 8 8 7 6 6 7 8
3 3 2 2 2 2 2 1 0 1 1 1 2 2 3 4 7 7 8 8 8 8 5 4 5 5 5 6 7 7 6 7 7 7 8 8 8 8 8 7 6 7 8
2 2 2 2 2 2 2 2 1 0 1 1 1 3 4 6 7 7 7 8 7 6 3 4 4 5 5 6 6 7 7 7 7 7 8 8 8 8 8 8 7 7 7
2 2 2 2 2 2 2 2 1 2 2 2 2 4 5 6 6 6 7 5 3 3 3 4 4 5 6 6 6 7 7 7 7 7 7 7 8 8 8 8 7 8 7
2 2 2 1 2 2 2 2 2 2 2 3 3 3 4 5 5 5 5 2 3 4 4 4 5 5 6 6 7 7 7 7 8 7 7 8 7 7 8 8 8 9 8
2 2 2 2 2 2 2 2 2 2 2 3 3 3 3 3 3 3 3 3 4 4 5 5 5 6 6 6 7 7 7 7 8 7 7 7 7 7 8 9 8 7 7
2 2 2 2 2 2 2 3 3 2 3 3 4 4 6 4 4 4 4 4 5 5 5 5 6 6 6 6 6 7 9 8 7 7 7 7 7 7 7 7 7 7 6
2 2 2 2 2 2 2 2 3 3 3 4 4 4 5 4 4 5 5 5 5 5 6 6 6 6 6 6 6 7 8 8 8 7 7 7 7 7 7 7 7 6 6
2 2 2 2 2 2 2 3 3 3 4 4 4 4 4 4 5 5 6 6 5 5 5 6 7 6 6 6 6 7 8 8 8 8 8 8 8 7 7 7 7 7 6
2 2 2 2 2 2 3 3 3 4 4 4 5 5 5 5 6 6 6 6 6 6 6 6 7 9 11 9 7 7 7 8 8 8 10 9 8 7 7 7 7 7 6
2 2 2 3 3 3 3 4 4 4 5 5 5 5 5 6 6 6 6 6 7 7 8 8 7 8 11 12 10 9 11 12 11 8 8 7 8 8 7 7 7 7 6
2 2 3 3 3 3 4 4 5 5 5 5 5 6 6 6 6 6 6 6 6 7 8 7 9 10 12 10 11 12 12 12 11 10 7 6 7 7 7 6 7 6 5
Wind_Direction
208 204 201 203 203 203 206 210 213 214 214 216 218 220 224 227 229 233 237 241 244 248 248 250 253 255 257 257 257 256 256 258 269 278 278 282 279 276 276 271 271 272 270
203 195 195 197 198 200 204 209 209 212 214 217 217 217 222 228 232 235 240 243 247 251 253 254 257 260 260 261 260 259 259 259 267 277 282 282 278 279 279 277 273 270 270
196 191 189 190 193 199 202 204 204 205 207 211 212 217 224 229 235 241 247 250 254 259 263 263 264 265 265 265 264 264 264 266 265 273 280 281 279 280 282 279 277 274 274
191 191 191 192 194 196 192 193 198 198 201 207 212 218 229 233 238 254 263 265 267 268 270 269 270 270 271 272 269 269 270 271 271 273 277 281 281 284 284 281 284 279 278
192 194 197 190 184 182 182 184 184 188 195 194 195 196 213 226 236 254 269 270 273 277 276 274 276 280 282 279 277 278 276 272 273 273 275 280 280 283 280 280 281 288 282
203 201 190 179 174 176 177 175 173 178 180 179 188 195 211 239 250 260 274 270 272 275 282 287 287 283 284 278 273 272 273 273 275 274 275 275 280 281 280 279 280 284 283
205 200 188 181 178 182 175 170 176 177 174 184 195 209 234 257 268 277 283 283 278 278 284 289 294 296 294 294 288 278 270 265 263 269 275 275 281 283 286 283 276 273 273
201 199 190 183 180 176 175 180 181 179 186 193 210 226 252 278 300 304 305 288 286 288 289 289 292 298 303 308 303 294 287 279 272 266 270 277 282 288 283 279 281 281 279
197 195 190 184 181 179 184 189 188 186 193 209 220 229 254 285 316 326 328 304 292 295 297 296 293 296 306 310 303 296 292 289 285 277 275 278 281 282 281 281 278 275 277
200 194 185 182 185 188 189 187 190 191 197 194 238 258 278 295 319 325 327 308 299 300 300 297 295 297 306 308 300 295 291 294 300 299 289 284 280 279 275 265 266 268 274
174 163 169 181 184 183 166 157 154 154 160 200 248 303 309 309 320 325 325 310 300 300 299 300 301 306 305 304 300 291 289 295 295 292 291 289 287 283 280 273 264 258 262
151 157 165 165 156 148 145 142 140 149 169 200 253 311 318 327 323 324 322 315 311 298 295 299 302 306 305 303 300 296 296 293 287 287 286 287 290 290 289 285 278 271 265
144 149 149 139 140 152 160 158 156 169 192 216 235 267 296 322 321 322 319 317 313 302 297 300 303 305 304 302 301 300 298 291 286 285 285 287 290 291 291 290 289 283 277
155 157 153 152 155 151 158 173 185 194 203 216 236 260 282 295 306 317 317 315 312 306 305 305 303 301 299 301 305 305 298 293 291 289 291 291 293 292 290 290 292 295 291
158 159 154 161 166 161 162 198 222 233 229 225 239 252 268 280 300 314 313 310 310 307 311 305 306 310 312 313 313 312 309 306 301 298 295 297 297 295 294 295 291 292 285
167 169 163 164 168 172 161 161 247 258 294 292 280 289 291 296 312 312 314 319 320 321 315 302 305 308 308 309 310 312 311 309 309 307 302 299 297 296 297 297 293 289 286
181 180 169 173 179 183 186 189 216 316 258 271 299 312 306 309 317 321 326 328 328 330 311 297 297 301 302 302 303 303 303 305 305 301 299 299 298 297 296 296 294 291 288
183 185 188 186 191 202 206 212 228 245 272 291 315 311 314 315 316 320 328 331 321 321 294 291 294 297 298 298 298 297 298 299 299 298 298 298 298 298 298 296 295 293 292
182 182 187 190 200 212 215 220 230 242 256 276 296 311 324 319 317 317 325 304 288 289 288 285 285 288 290 292 293 294 294 293 294 295 293 295 295 296 295 296 295 294 291
188 186 195 198 202 207 209 215 226 237 252 263 272 287 310 309 299 303 298 284 278 279 281 280 281 283 288 289 291 291 291 291 292 290 290 291 291 291 291 294 295 295 293
187 184 191 205 211 213 214 217 223 232 246 261 268 273 286 289 282 282 281 278 276 277 278 279 280 282 283 286 287 289 290 289 289 289 290 289 289 289 290 290 292 292 293
200 200 207 214 220 225 229 233 233 236 245 257 268 276 285 279 271 272 273 273 273 274 278 279 278 277 277 278 282 285 286 287 288 290 291 290 288 289 289 289 289 291 289
207 209 215 221 226 229 238 242 243 246 252 258 265 271 271 268 269 270 272 274 276 276 277 275 276 277 277 275 276 277 279 280 282 284 285 285 287 288 288 287 286 287 287
209 215 221 226 230 236 241 244 246 249 253 258 261 263 264 266 268 271 274 277 278 277 275 272 271 275 279 281 279 275 274 278 281 277 278 278 281 283 284 285 286 286 286
212 220 227 233 236 240 245 249 250 252 254 256 258 261 263 264 267 270 273 274 276 275 276 276 272 274 277 279 280 280 281 283 282 279 276 274 274 277 280 282 283 286 284
225 230 236 238 240 243 246 250 253 255 256 257 258 259 262 265 268 271 272 271 273 275 277 276 274 278 282 283 283 285 285 284 283 281 276 273 274 276 279 278 281 282 280